Terminal Aerodrome Forecast
Issued by NWS

Home | Current Version | Previous Version | Text Only | Print | Product List | Glossary On
Versions: 1 2 3 4 5 6 7 8 9 10 11 12 13 14 15 16 17 18 19 20
000
FTUS43 KJKL 281700
TAFSME
TAF
KSME 281720Z 2818/2918 20005KT P6SM BKN100
     FM290700 VRB04KT P6SM SCT100 WS020/23040KT
     FM291400 19010G20KT P6SM BKN100=

USA.gov is the U.S. government's official web portal to all federal, state and local government web resources and services.